{"data":{"norad_id":62864,"intl_designator":"2025-022L","name":"STARLINK-32862","alt_names":[],"object_type":"PAYLOAD","status":"ACTIVE","operator":null,"country":"US","launch_date":"2025-02-01","launch_site_code":"AFWTR","launch_vehicle":null,"mission":null,"orbit_class":"UNKNOWN","rcs_meters":null,"size_class":null,"mass_kg":null,"dimensions":null,"purposes":["comms"],"wikipedia_slug":null,"has_3d_model":false,"image_url":null,"decayed_at":null,"tle_current":{"epoch":"2026-09-21T08:47:15.137088Z","epoch_age_seconds":93363,"freshness":"FRESH","line1":"1 62864U 25022L   26264.36614742  .00018577  00000+0  55937-3 0  9999","line2":"2 62864  53.1595 297.5597 0002304  95.4980 264.6286 15.34411139 91909","mean_motion":15.34411139,"eccentricity":0.0002304,"inclination_deg":53.1595,"raan_deg":297.5597,"arg_perigee_deg":95.498,"mean_anomaly_deg":264.6286,"bstar":0.00055937,"rev_number":9190,"period_min":93.847076797062,"perigee_km":461.09401098852,"apogee_km":464.24625491538,"semimajor_km":6840.807132952,"source":"CELESTRAK","updated_at":"2026-09-22T09:00:49.677620Z"}}}